Погода в Новом Стародубе

Украина / Кировоградская область     48°30′41″N   33°10′02″E
темп.,
°C
ветер,
м/с
пор.,
м/с
влажн.,
%
обл.,
%
осадки,
мм/ч
давл.,
гПа
погр.,
м
16 апреля, пт
пт1600:00+7ю239030 0.1 101264
03:00+6ююз339430 0.1 101288
06:00+6ююз479747 0.0 1012213
09:00+7ююз6887100 0.0 1013675
12:00+8ююз698296 0.1 1014925
15:00+11юз895899 0.6 10141653
18:00+7юз786999 0.3 10151043
21:00+4юз6890100 0.3 1016718
17 апреля, сб
сб1700:00+4юз5995100 1.0 1016840
03:00+4зюз6896100 1.9 1017755
06:00+5зюз478584 0.1 1018554
09:00+7зюз567399 0.1 1020788
12:00+10з795888 0.0 10201530
15:00+10з575898 0.1 10201480
18:00+10з235997 0.1 1020933
21:00+9юв2268100 0.1 102031
18 апреля, вс
вс1800:00+8юв367378 0.0 1019145
03:00+7юз377290 0.0 1019163
06:00+6ююз487035 0.0 1018205
09:00+9юз4655100 0.0 1019497
12:00+14юз5642100 0.0 10181415
15:00+16юз453821 0.0 10171962
18:00+15юз344199 0.0 10161795
21:00+12юз2250100 0.0 101727
19 апреля, пн
пн1900:00+10ссв1166100 0.0 101733
03:00+9ююз127197 0.0 101626
06:00+7с3588100 0.0 1016110
09:00+10св337391 0.0 1015471
12:00+15вюв335194 0.0 10151572
15:00+17в3341100 0.1 10122018
18:00+15всв4749100 0.0 1010576
21:00+13в51068100 0.1 1007624
20 апреля, вт
вт2000:00+11всв61292100 1.8 1004635
03:00+10всв61196100 6.4 999668
06:00+11ююв5997100 7.1 995612
09:00+12ю797690 7.9 994901
12:00+10ююв71078100 0.1 9941103
15:00+8ююв4687100 1.2 993953
18:00+9з4784100 1.4 994551
21:00+7з81289100 2.4 9991075